Погода в Первомайской

Россия / Чеченская Республика     43°24′01″N   45°31′33″E
темп.,
°C
ветер,
м/с
пор.,
м/с
влажн.,
%
обл.,
%
осадки,
мм/ч
давл.,
гПа
погр.,
м
13 июня, вс
вс1300:00+19юз1171100 0.0 101111
03:00+18з1173100 0.0 101114
06:00+19ссз1173100 0.0 101161
09:00+22сз3263100 0.0 1011561
12:00+23сз4361100 0.0 1011795
15:00+24ссз4456100 0.6 1011974
18:00+21зсз3678100 0.9 1011179
21:00+18зсз3696100 3.2 1013220
14 июня, пн
пн1400:00+17з1196100 1.0 101342
03:00+16з22954 1.0 101216
06:00+18з22892 0.0 1013160
09:00+23с216835 0.0 1012873
12:00+26ссв325123 0.0 10111561
15:00+28с32432 0.0 10101748
18:00+28с23480 0.0 1010341
21:00+22ссз11620 0.0 101012
15 июня, вт
вт1500:00+21ююв11660 0.0 100911
03:00+19вюв11710 0.0 100811
06:00+21всв23690 0.0 1008163
09:00+26всв35510 0.0 10071070
12:00+30св44410 0.0 10061661
15:00+31ссз433824 0.0 10072101
18:00+30ссз454621 0.0 1007378
21:00+25ссз24594 0.0 1009113
16 июня, ср
ср1600:00+21зсз23750 0.0 101043
03:00+20з22840 0.0 101034
06:00+22зсз22750 0.0 1011127
09:00+27всв36490 0.0 10091165
12:00+32в67330 0.0 10082082
15:00+33в77290 0.0 10062013
18:00+29всв68390 0.0 1007582
21:00+23в36531 0.0 1009126
17 июня, чт
чт1700:00+20вюв11670 0.0 100819
03:00+19ссз01720 0.0 100811
06:00+21зсз22660 0.0 1008136
09:00+26ссз32510 0.0 1006718
12:00+31с22390 0.0 10041345
15:00+33зсз54374 0.0 10041830
18:00+28з695928 0.5 1006694
21:00+23зсз813760 0.5 1010765